Flag for Germany Weather past 2 weeks in Fürth, Bavaria, Germany

Now
28 °F

Fog.


Feels Like: 28 °F
Forecast: 30 / 32 °F
Wind: 1 mph from Northeast

Location: Nuernberg

Current Time: Dec 26, 2014 at 7:46:00 PM

Latest Report: Dec 26, 2014 at 7:20 PM


Visibility: N/A

Pressure: 30.30 "Hg

Humidity: 100%

Dew point: 28 °F

Location of FürthLocation

Historic Weather in Fürth — Graph

°F

Fürth temperature yesterday

Maximum temperature yesterday: 46 °F (at 2:50 AM)
Minimum temperature yesterday: 37 °F (at 7:50 AM)
Average temperature yesterday: 40 °F

Past Weeks' High & Low Weather Summary

 TemperatureHumidityPressure
High54 °F (Dec 18, 9:20 PM)100% (Dec 11, 11:20 PM)30.45 "Hg (Dec 11, 11:20 PM)
Low30 °F (Dec 17, 6:20 AM)58% (Dec 13, 12:20 PM)29.71 "Hg (Dec 12, 3:50 PM)
Average43 °F86%30.06 "Hg
* Reported Dec 11 6:20 PM — Dec 26 6:20 PM, Fürth, Weather by CustomWeather, © 2014

Note: Actual official high and low records may vary slightly from our data, if they occured in-between our weather recording intervals... More about our weather records

Advertising

Fürth weather history for previous 24 hours

 ConditionsComfort  
Time TempWeatherWind HumidityBarometerVisibility
6:20 PM
Dec 26
30 °FPassing clouds.2 mph100%30.30 "HgN/A
5:20 PM30 °FPassing clouds.2 mph100%30.30 "HgN/A
4:50 PM30 °FPassing clouds.1 mph100%30.30 "HgN/A
4:20 PM32 °FSnow flurries. Scattered clouds.5 mph100%30.30 "Hg2 mi
3:50 PM32 °FScattered clouds.2 mph100%30.30 "HgN/A
3:20 PM32 °FScattered clouds.3 mph100%30.30 "HgN/A
2:50 PM34 °FSnow showers. Partly sunny.7 mph87%30.30 "Hg1 mi
2:20 PM36 °FScattered showers. Broken clouds.5 mph81%30.30 "HgN/A
1:50 PM36 °FSnow flurries. Broken clouds.7 mph81%30.30 "HgN/A
1:20 PM37 °FScattered showers. Broken clouds.9 mph81%30.30 "HgN/A
12:50 PM36 °FScattered showers. Broken clouds.12 mph81%30.33 "HgN/A
12:20 PM36 °FScattered clouds.12 mph81%30.33 "HgN/A
11:50 AM37 °FScattered clouds.8 mph75%30.33 "HgN/A
11:20 AM36 °FScattered clouds.10 mph87%30.33 "HgN/A
10:50 AM36 °FScattered clouds.8 mph87%30.36 "HgN/A
10:20 AM34 °FScattered clouds.8 mph93%30.36 "HgN/A
9:50 AM32 °FScattered clouds.5 mph93%30.33 "HgN/A
9:20 AM32 °FScattered clouds.5 mph93%30.33 "HgN/A
8:50 AM32 °FScattered clouds.3 mph93%30.33 "HgN/A
8:20 AM32 °FScattered clouds.5 mph93%30.33 "HgN/A
7:50 AM32 °FPassing clouds.5 mph93%30.33 "HgN/A
7:20 AM34 °FPassing clouds.6 mph87%30.30 "HgN/A
6:50 AM34 °FPassing clouds.7 mph93%30.30 "HgN/A
6:20 AM34 °FPassing clouds.7 mph93%30.30 "HgN/A
5:50 AM34 °FPassing clouds.6 mph93%30.30 "HgN/A
5:20 AM34 °FPassing clouds.3 mph93%30.30 "HgN/A
4:50 AM34 °FPassing clouds.3 mph93%30.30 "HgN/A
3:20 AM34 °FPassing clouds.5 mph87%30.30 "HgN/A
2:50 AM34 °FClear.8 mph87%30.30 "Hg10 mi
2:20 AM34 °FClear.10 mph93%30.30 "Hg10 mi
1:50 AM36 °FPassing clouds.9 mph87%30.30 "HgN/A
1:20 AM34 °FClear.7 mph93%30.27 "Hg10 mi
12:50 AM34 °FPassing clouds.6 mph93%30.27 "HgN/A
12:20 AM36 °FPassing clouds.9 mph87%30.27 "HgN/A
11:20 PM
Dec 25
37 °FPartly cloudy.12 mph87%30.27 "HgN/A
10:50 PM37 °FPartly cloudy.17 mph87%30.27 "HgN/A
10:20 PM39 °FPassing clouds.18 mph81%30.24 "HgN/A
9:50 PM39 °FPassing clouds.16 mph81%30.24 "HgN/A
9:20 PM39 °FSprinkles. Partly cloudy.18 mph81%30.24 "HgN/A
8:50 PM39 °FPartly cloudy.16 mph75%30.24 "HgN/A
8:20 PM39 °FPassing clouds.15 mph75%30.24 "HgN/A
7:50 PM39 °FPassing clouds.15 mph75%30.24 "HgN/A
7:20 PM39 °FPassing clouds.13 mph75%30.24 "HgN/A
Weather by CustomWeather, © 2014

See weather overviewHow to use our weather pages